This demonstration page uses our WeatherBlox Daily Observations layout. Learn more.

Left ArrowRight Arrow

Hourly Observations for July 29, 2018

Temp ( °F °C ) Dew Point ( °F °C ) Humidity (%) Winds ( mph kmh ) Pressure ( in mb ) Visibility ( mi km ) Precip ( " mm )
12:17 am 00:17 Partly Cloudy 59 15 59 15 100 100 N N/A 30.15 1021 10 16.0934 N/A
12:36 am 00:36 Mostly Cloudy 59 15 59 15 100 100 N N/A 30.15 1021 10 16.0934 N/A
12:56 am 00:56 Partly Cloudy 61 16 61 16 100 100 N N/A 30.15 1021 10 16.0934 N/A
1:17 am 01:17 Partly Cloudy 59 15 59 15 100 100 N N/A 30.15 1021 10 16.0934 N/A
1:36 am 01:36 Partly Cloudy 59 15 59 15 100 100 N N/A 30.15 1021 10 16.0934 N/A
1:57 am 01:57 Partly Cloudy 59 15 59 15 100 100 N N/A 30.15 1021 10 16.0934 N/A
2:16 am 02:16 Partly Cloudy 59 15 59 15 100 100 N N/A 30.15 1021 10 16.0934 N/A
2:36 am 02:36 Partly Cloudy 59 15 59 15 100 100 N N/A 30.15 1021 10 16.0934 N/A
2:57 am 02:57 Partly Cloudy 57 14 57 14 100 100 N N/A 30.15 1021 10 16.0934 N/A
3:17 am 03:17 Mostly Cloudy 57 14 57 14 100 100 N N/A 30.15 1021 10 16.0934 N/A
3:36 am 03:36 Cloudy 59 15 59 15 100 100 N N/A 30.15 1021 10 16.0934 N/A
3:57 am 03:57 Cloudy 59 15 59 15 100 100 N N/A 30.15 1021 10 16.0934 N/A
4:16 am 04:16 Cloudy 61 16 61 16 100 100 N N/A 30.15 1021 10 16.0934 N/A
4:36 am 04:36 Cloudy 61 16 61 16 100 100 N N/A 30.15 1021 10 16.0934 N/A
4:57 am 04:57 Mostly Cloudy 61 16 61 16 100 100 N N/A 30.15 1021 10 16.0934 N/A
5:16 am 05:16 Partly Cloudy 61 16 61 16 100 100 N N/A 30.15 1021 10 16.0934 N/A
5:37 am 05:37 Partly Cloudy 61 16 61 16 100 100 N N/A 30.15 1021 10 16.0934 N/A
5:57 am 05:57 Partly Cloudy 61 16 61 16 100 100 N N/A 30.15 1021 10 16.0934 N/A
6:16 am 06:16 Clear 61 16 61 16 100 100 N N/A 30.15 1021 10 16.0934 N/A
6:37 am 06:37 Clear 61 16 61 16 100 100 N N/A 30.15 1021 10 16.0934 N/A
6:56 am 06:56 Sunny 61 16 61 16 100 100 N N/A 30.15 1021 10 16.0934 N/A
7:16 am 07:16 Sunny 59 15 59 15 100 100 N N/A 30.15 1021 10 16.0934 N/A
7:37 am 07:37 Sunny 59 15 59 15 100 100 N N/A 30.12 1020 10 16.0934 N/A
7:56 am 07:56 Sunny 61 16 61 16 100 100 N N/A 30.12 1020 10 16.0934 N/A
8:16 am 08:16 Sunny 63 17 63 17 100 100 N N/A 30.12 1020 10 16.0934 N/A
8:37 am 08:37 Sunny 64 18 64 18 100 100 N N/A 30.12 1020 10 16.0934 N/A
8:56 am 08:56 Sunny 66 19 64 18 94 94 N N/A 30.12 1020 10 16.0934 N/A
9:17 am 09:17 Sunny 68 20 64 18 88 88 N N/A 30.15 1021 10 16.0934 N/A
9:36 am 09:36 Sunny 68 20 64 18 88 88 E 3 6 30.15 1021 10 16.0934 N/A
9:56 am 09:56 Sunny 70 21 66 19 88 88 N N/A 30.15 1021 10 16.0934 N/A
10:17 am 10:17 Sunny 70 21 64 18 83 83 SE 3 6 30.15 1021 10 16.0934 N/A
10:36 am 10:36 Sunny 70 21 64 18 83 83 N N/A 30.15 1021 10 16.0934 N/A
10:57 am 10:57 Sunny 72 22 66 19 83 83 SE 3 6 30.15 1021 10 16.0934 N/A
11:17 am 11:17 Partly Cloudy 72 22 64 18 78 78 ESE 3 6 30.15 1021 10 16.0934 N/A
11:36 am 11:36 Partly Cloudy 72 22 66 19 83 83 N N/A 30.15 1021 10 16.0934 N/A
11:57 am 11:57 Sunny 72 22 66 19 83 83 SSW 3 6 30.15 1021 10 16.0934 N/A
12:16 pm 12:16 Sunny 73 23 66 19 78 78 N N/A 30.12 1020 10 16.0934 N/A
12:36 pm 12:36 Sunny 73 23 66 19 78 78 SSE 5 7 30.12 1020 10 16.0934 N/A
12:57 pm 12:57 Sunny 73 23 66 19 78 78 N N/A 30.09 1019 10 16.0934 N/A
1:16 pm 13:16 Sunny 73 23 66 19 78 78 N N/A 30.12 1020 10 16.0934 N/A
1:37 pm 13:37 Sunny 73 23 68 20 83 83 N N/A 30.12 1020 10 16.0934 N/A
1:56 pm 13:56 Sunny 73 23 66 19 78 78 N N/A 30.09 1019 10 16.0934 N/A
2:16 pm 14:16 Partly Cloudy 73 23 66 19 78 78 N N/A 30.09 1019 10 16.0934 N/A
2:37 pm 14:37 Mostly Cloudy 73 23 68 20 83 83 N N/A 30.09 1019 10 16.0934 N/A
2:56 pm 14:56 Cloudy 73 23 66 19 78 78 NNE 5 7 30.09 1019 10 16.0934 N/A
3:16 pm 15:16 Mostly Cloudy 73 23 66 19 78 78 NNE 5 7 30.09 1019 10 16.0934 N/A
3:37 pm 15:37 Sunny 73 23 66 19 78 78 NNE 6 9 30.09 1019 10 16.0934 N/A
3:56 pm 15:56 Sunny 73 23 68 20 83 83 N 5 7 30.09 1019 10 16.0934 N/A
4:17 pm 16:17 Mostly Cloudy 73 23 66 19 78 78 NNE 5 7 30.09 1019 10 16.0934 N/A
4:37 pm 16:37 Cloudy 73 23 68 20 83 83 NNE 3 6 30.09 1019 10 16.0934 N/A
4:56 pm 16:56 Cloudy 72 22 68 20 88 88 NNE 3 6 30.09 1019 10 16.0934 N/A
5:17 pm 17:17 Cloudy 72 22 70 21 94 94 N N/A 30.09 1019 10 16.0934 N/A
5:36 pm 17:36 Cloudy 72 22 70 21 94 94 N N/A 30.09 1019 10 16.0934 N/A
5:57 pm 17:57 Cloudy 72 22 70 21 94 94 N N/A 30.09 1019 10 16.0934 N/A
6:16 pm 18:16 Cloudy 70 21 70 21 100 100 N 6 9 30.12 1020 10 16.0934 N/A
6:36 pm 18:36 Cloudy 70 21 68 20 94 94 N 5 7 30.12 1020 10 16.0934 N/A
6:57 pm 18:57 Cloudy 68 20 68 20 100 100 N 5 7 30.12 1020 10 16.0934 N/A
7:16 pm 19:16 Cloudy 70 21 70 21 100 100 NNE 3 6 30.09 1019 10 16.0934 N/A
7:36 pm 19:36 Cloudy 68 20 68 20 100 100 N N/A 30.09 1019 10 16.0934 N/A
7:57 pm 19:57 Cloudy 68 20 68 20 100 100 N N/A 30.09 1019 10 16.0934 N/A
8:16 pm 20:16 Cloudy 68 20 68 20 100 100 ENE 3 6 30.09 1019 10 16.0934 N/A
8:37 pm 20:37 Cloudy 68 20 68 20 100 100 NE 3 6 30.09 1019 10 16.0934 N/A
8:56 pm 20:56 Cloudy 68 20 68 20 100 100 NNE 3 6 30.09 1019 10 16.0934 N/A
9:16 pm 21:16 Partly Cloudy 66 19 66 19 100 100 NNE 3 6 30.09 1019 10 16.0934 N/A
9:36 pm 21:36 Mostly Cloudy 66 19 66 19 100 100 N N/A 30.09 1019 10 16.0934 N/A
9:57 pm 21:57 Cloudy 66 19 66 19 100 100 N N/A 30.09 1019 10 16.0934 N/A
10:17 pm 22:17 Cloudy 66 19 66 19 100 100 N N/A 30.12 1020 10 16.0934 N/A
10:36 pm 22:36 Cloudy 66 19 66 19 100 100 N N/A 30.12 1020 10 16.0934 N/A
10:57 pm 22:57 Cloudy 66 19 66 19 100 100 N N/A 30.12 1020 10 16.0934 N/A
11:16 pm 23:16 Cloudy 66 19 66 19 100 100 NNE 3 6 30.12 1020 10 16.0934 N/A
11:37 pm 23:37 Cloudy 64 18 64 18 100 100 N N/A 30.12 1020 10 16.0934 N/A
11:57 pm 23:57 Cloudy 64 18 64 18 100 100 ENE 3 6 30.12 1020 10 16.0934 N/A

Powered by AerisWeather